Tracking 30743 objects as of 21-Jun-2025
HD Live streaming from Space Station
objects crossing your sky now

COSMOS 1275 DEB

Track COSMOS 1275 DEB now!
10-day predictions


NORAD ID: 42191
Int'l Code: 1981-053TF
Perigee: 844.3 km
Apogee: 897.0 km
Inclination: 82.8 °
Period: 102.2 minutes
Semi major axis: 7241 km
RCS: Unknown
Launch date: June 4, 1981
Source: Commonwealth of Independent States (former USSR) (CIS)
Launch site: PLESETSK MISSILE AND SPACE COMPLEX (PKMTR)

Note: This is SATELLITE DEBRIS
Your satellite tracking list
Your tracking list is empty




NASA's NSSDC Master Catalog

Two Line Element Set (TLE):
1 42191U 81053TF  25171.41120336  .00001643  00000-0  93797-3 0  9992
2 42191  82.8223  55.0870 0036353 313.8829  45.9344 14.08792546592206
Source of the keplerian elements: AFSPC